Weather History for Eagle River, WI

Change the Weather History Date:

Tuesday, June 11, 2013

  Actual Average Record
Temperature  
Mean Temperature 64 °F -  
Max Temperature 78 °F 76 °F 86 °F (2001)
Min Temperature 50 °F 50 °F 33 °F (2006)
Degree Days  
Heating Degree Days 1    
Growing Degree Days 14 (Base 50)    
Moisture  
Dew Point 50 °F    
Average Humidity 64    
Maximum Humidity 100    
Minimum Humidity 32    
Precipitation  
Precipitation 0.00 in - - ()
Sea Level Pressure  
Sea Level Pressure 29.87 in    
Wind  
Wind Speed 3 mph (NW)    
Max Wind Speed 13 mph    
Max Gust Speed 18 mph    
Visibility 7 miles    
Events Fog    
Averages and records for this station are not official NWS values.
T = Trace of Precipitation, MM = Missing Value Source: NWS Daily Summary

Daily Weather History Graph

Daily Weather History Graph

Search for Another Location

Airport:

Trip Planner

Search our weather history database for the weather conditions in past years. The results will help you decide how hot, cold, wet, or windy it might be!

Date:

Astronomy

Jun. 11, 2013 Rise Set
Actual Time 5:06 AM CDT 8:47 PM CDT
Civil Twilight 4:28 AM CDT 9:25 PM CDT
Nautical Twilight 3:36 AM CDT 10:17 PM CDT
Astronomical Twilight 2:26 AM CDT 11:27 PM CDT
Moon 7:56 AM CDT (6/11) 10:41 PM CDT (6/11)
Length of Visible Light 16h 57m
Length of Day
15h 41m
Waxing Crescent, 8% of the Moon is Illuminated
Jun 11
Waxing Crescent
Jun 16
First Quarter
Jun 23
Full
Jun 29
Last Quarter
Jul 8
New

Hourly Weather History & Observations

Time (CDT) Temp. Dew Point Humidity Pressure Visibility Wind Dir Wind Speed Gust Speed Precip Events Conditions
12:15 AM 58.1 °F 58.1 °F 100% 29.86 in 5.0 mi Calm Calm - N/A   Clear
12:35 AM 56.7 °F 56.7 °F 100% 29.86 in 1.0 mi Calm Calm - N/A   Mist
12:55 AM 55.8 °F 55.8 °F 100% 29.86 in 0.2 mi Calm Calm - N/A Fog Fog
1:15 AM 55.6 °F 55.6 °F 100% 29.86 in 0.2 mi Calm Calm - N/A Fog Fog
1:35 AM 55.0 °F 55.0 °F 100% 29.85 in 0.2 mi Calm Calm - N/A Fog Fog
1:55 AM 54.5 °F 54.5 °F 100% 29.86 in 4.0 mi Calm Calm - N/A   Mostly Cloudy
2:15 AM 54.5 °F 54.5 °F 100% 29.85 in 0.2 mi Calm Calm - N/A Fog Fog
2:35 AM 52.2 °F 52.2 °F 100% 29.85 in 0.5 mi Calm Calm - N/A Fog Fog
2:55 AM 52.0 °F 52.0 °F 100% 29.85 in 0.2 mi Calm Calm - N/A Fog Fog
3:15 AM 52.3 °F 52.3 °F 100% 29.85 in 0.2 mi Calm Calm - N/A Fog Fog
3:35 AM 51.8 °F 51.8 °F 100% 29.85 in 0.2 mi Calm Calm - N/A Fog Fog
3:55 AM 51.3 °F 51.3 °F 100% 29.85 in 0.2 mi Calm Calm - N/A Fog Fog
4:15 AM 51.8 °F 51.8 °F 100% 29.86 in 1.0 mi Calm Calm - N/A   Overcast
4:35 AM 50.9 °F 50.9 °F 100% 29.87 in 0.2 mi Calm Calm - N/A Fog Fog
4:55 AM 50.7 °F 50.7 °F 100% 29.88 in 0.2 mi Calm Calm - N/A Fog Fog
5:15 AM 51.4 °F 51.4 °F 100% 29.88 in 2.5 mi Calm Calm - N/A   Overcast
10:55 AM 72.1 °F 53.8 °F 52% 29.87 in 10.0 mi WSW 8.1 mph - N/A   Scattered Clouds
11:15 AM 73.8 °F 54.7 °F 51% 29.86 in 10.0 mi West 5.8 mph 17.3 mph N/A   Scattered Clouds
11:35 AM 74.8 °F 52.5 °F 46% 29.87 in 10.0 mi West 9.2 mph 16.1 mph N/A   Scattered Clouds
11:55 AM 75.2 °F 53.4 °F 47% 29.88 in 10.0 mi WNW 9.2 mph 16.1 mph N/A   Mostly Cloudy
12:15 PM 75.2 °F 54.1 °F 48% 29.88 in 10.0 mi West 12.7 mph 16.1 mph N/A   Mostly Cloudy
12:35 PM 73.9 °F 54.0 °F 50% 29.87 in 10.0 mi WSW 9.2 mph 16.1 mph N/A   Mostly Cloudy
12:55 PM 76.1 °F 54.3 °F 47% 29.85 in 10.0 mi West 10.4 mph - N/A   Scattered Clouds
1:15 PM 75.0 °F 54.7 °F 49% 29.85 in 10.0 mi West 10.4 mph - N/A   Mostly Cloudy
1:35 PM 75.2 °F 54.7 °F 49% 29.85 in 10.0 mi West 10.4 mph - N/A   Scattered Clouds
1:55 PM 77.2 °F 54.5 °F 45% 29.84 in 10.0 mi WNW 9.2 mph - N/A   Scattered Clouds
2:15 PM 77.4 °F 54.3 °F 45% 29.84 in 10.0 mi NW 6.9 mph - N/A   Mostly Cloudy
2:35 PM 76.5 °F 54.7 °F 47% 29.84 in 10.0 mi NW 6.9 mph - N/A   Mostly Cloudy
2:55 PM 74.7 °F 54.7 °F 50% 29.84 in 10.0 mi NW 8.1 mph - N/A   Mostly Cloudy
3:15 PM 77.2 °F 55.2 °F 47% 29.84 in 10.0 mi NNW 5.8 mph - N/A   Mostly Cloudy
3:35 PM 76.3 °F 54.1 °F 46% 29.84 in 10.0 mi NNW 9.2 mph - N/A   Mostly Cloudy
3:55 PM 77.0 °F 52.9 °F 43% 29.84 in 10.0 mi North 6.9 mph - N/A   Mostly Cloudy
4:15 PM 75.7 °F 51.4 °F 43% 29.84 in 10.0 mi NNW 8.1 mph - N/A   Mostly Cloudy
4:35 PM 78.1 °F 50.9 °F 39% 29.84 in 10.0 mi North 9.2 mph - N/A   Mostly Cloudy
4:55 PM 77.2 °F 49.6 °F 38% 29.84 in 10.0 mi NNW 8.1 mph - N/A   Overcast
5:15 PM 76.3 °F 49.5 °F 39% 29.85 in 10.0 mi North 8.1 mph - N/A   Mostly Cloudy
5:35 PM 74.8 °F 47.5 °F 38% 29.85 in 10.0 mi North 10.4 mph - N/A   Scattered Clouds
5:55 PM 77.0 °F 46.6 °F 34% 29.85 in 10.0 mi North 11.5 mph 18.4 mph N/A   Mostly Cloudy
6:35 PM 74.7 °F 44.6 °F 34% 29.86 in 10.0 mi North 9.2 mph - N/A   Clear
6:55 PM 74.3 °F 43.3 °F 33% 29.86 in 10.0 mi NNW 6.9 mph - N/A   Scattered Clouds
7:15 PM 73.2 °F 41.7 °F 32% 29.87 in 10.0 mi North 9.2 mph - N/A   Scattered Clouds
7:35 PM 71.8 °F 42.3 °F 34% 29.88 in 10.0 mi North 9.2 mph - N/A   Clear
7:55 PM 70.7 °F 41.9 °F 35% 29.88 in 10.0 mi North 8.1 mph - N/A   Clear
8:15 PM 68.9 °F 41.0 °F 36% 29.89 in 10.0 mi North 6.9 mph - N/A   Clear
8:35 PM 66.4 °F 41.5 °F 40% 29.89 in 10.0 mi North 5.8 mph - N/A   Clear
8:55 PM 65.5 °F 42.1 °F 43% 29.91 in 10.0 mi North 4.6 mph - N/A   Mostly Cloudy
9:15 PM 65.7 °F 42.8 °F 43% 29.91 in 10.0 mi North 3.5 mph - N/A   Overcast
9:35 PM 62.8 °F 44.8 °F 52% 29.92 in 10.0 mi Calm Calm - N/A   Overcast
9:55 PM 58.3 °F 47.3 °F 67% 29.92 in 10.0 mi Calm Calm - N/A   Scattered Clouds
10:15 PM 57.6 °F 46.8 °F 67% 29.92 in 10.0 mi Calm Calm - N/A   Clear
10:35 PM 54.7 °F 46.4 °F 74% 29.92 in 10.0 mi Calm Calm - N/A   Clear
10:55 PM 54.3 °F 46.6 °F 75% 29.91 in 10.0 mi Calm Calm - N/A   Clear
11:15 PM 53.2 °F 46.8 °F 79% 29.91 in 10.0 mi Calm Calm - N/A   Clear
11:35 PM 51.4 °F 46.4 °F 83% 29.91 in 10.0 mi Calm Calm - N/A   Clear
11:55 PM 50.7 °F 48.7 °F 93% 29.91 in 10.0 mi Calm Calm - N/A   Clear